Regional Weather Roundup
Issued by NWS

Home | Current Version | Previous Version | Graphics & Text | Print | Product List | Glossary On
Versions: 1 2 3 4 5 6 7 8 9 10 11 12 13 14 15 16 17 18 19 20 21 22 23 24 25 26 27 28 29 30 31 32 33 34 35 36 37 38 39 40 41 42 43 44 45 46 47 48 49 50
212
ASUS43 KLOT 240102
RWRIL

ILLINOIS REGIONAL WEATHER ROUNDUP
NATIONAL WEATHER SERVICE CHICAGO/ROMEOVILLE IL
800 PM CDT THU MAR 23 2017

NOTE: "FAIR" INDICATES FEW OR NO CLOUDS BELOW 12,000 FEET WITH NO
SIGNIFICANT WEATHER AND/OR OBSTRUCTIONS TO VISIBILITY.

* THESE STATIONS ARE NOT UNDER NWS QUALITY CONTROL. THEY ALSO MAY NOT
  REPORT WEATHER SUCH AS PRECIPITATION OR FOG.

ILZ001-002-007-009-015-016-024-240200-
NORTHWEST ILLINOIS

CITY           SKY/WX    TMP DP  RH WIND       PRES   REMARKS
MOLINE         CLOUDY    44  35  70 SE9       29.91F
STERLING*      PTCLDY    43  33  68 SE14      29.95F
SAVANNA*       PTCLDY    42  32  68 SE10      29.96R
$$

ILZ003-004-008-010-011-017-018-240200-
NORTH CENTRAL ILLINOIS

CITY           SKY/WX    TMP DP  RH WIND       PRES   REMARKS
ROCKFORD       CLOUDY    44  32  62 SE15      30.03R
FREEPORT*      CLOUDY    40  32  74 SE9       30.02R
ROCHELLE*      MOCLDY    44  31  60 SE20      30.00R
DE KALB*       CLOUDY    45  30  54 SE17G24   30.03F
$$

ILZ005-006-012>014-019>023-240200-
NORTHEAST ILLINOIS

CITY           SKY/WX    TMP DP  RH WIND       PRES   REMARKS
CHICAGO-OHARE  TSTM      46  32  58 S18G30    30.04F
CHICAGO-MIDWAY CLOUDY    49  32  52 S14       30.08F THUNDER
AURORA         CLOUDY    47  30  51 SE17      30.03F
LANSING*       TSTM      46  35  65 SE6       30.08F
JOLIET*        CLOUDY    49  32  52 S12       30.07S
WAUKEGAN       TSTM      42  33  70 SE16      29.99F
DUPAGE AIRPORT CLOUDY    45  33  63 SE14G24   30.02F
WHEELING       TSTM      45  34  65 S13       30.08R
MORRIS*        CLOUDY    46  31  54 SE15G24   30.04F
NORTHERLY ISL    N/A     48  27  44 S15         N/A
$$

LMZ740>746-240200-
SOUTHERN LAKE MICHIGAN

STATION/POSITION SKY/WX   TEMP    WIND        PRES    VSBY  WAVE
                          AIR SEA DIR/SP/G                  HT/PER
                          (F)     (DEG/KT/KT) (MB)    (MI)  (FT/S)
HARRISON CRIB              45     170/ 22/ 22   N/A
BURNHAM HARBOR             45     180/  9/ 19   N/A
CALUMET HARBOR             48     150/ 11/ 20 1018.2F
BURNS HARBOR               48     160/  8/ 20 1018.3F
MICHIGAN CITY              47     140/ 14/ 17   N/A
$$

ILZ025>027-034>036-040-047-049-050-058-095>099-240200-
WEST-CENTRAL ILLINOIS

CITY           SKY/WX    TMP DP  RH WIND       PRES   REMARKS
QUINCY         CLEAR     52  41  66 SE14      29.91F
GALESBURG*     CLEAR     43  38  83 SE10G18   29.93F
MACOMB*        CLOUDY    44  41  88 SE13      29.97F
JACKSONVILLE*  CLEAR     47  42  82 SE16G22   29.97F
PITTSFIELD*    CLEAR     52  43  73 SE10      29.96F
$$

ILZ028>032-037-038-041>044-048-051>054-059>061-240200-
CENTRAL ILLINOIS

CITY           SKY/WX    TMP DP  RH WIND       PRES   REMARKS
PONTIAC        CLOUDY    47  34  60 SE16      30.07R
BLOOMINGTON    CLOUDY    43  33  68 SE18G24   30.04F
DECATUR        PTCLDY    46  35  65 SE14      30.05F
PEORIA         CLEAR     45  37  73 S16       30.00F
SPRINGFIELD    CLEAR     47  40  76 SE16G28   30.01F
TAYLORVILLE    NOT AVBL
$$

ILZ033-039-045-046-055>057-062-063-240200-
EAST-CENTRAL ILLINOIS

CITY           SKY/WX    TMP DP  RH WIND       PRES   REMARKS
CHAMPAIGN      MOCLDY    47  30  51 SE16      30.08F
RANTOUL*       CLOUDY    49  34  55 SE17      30.08F
MATTOON        PTCLDY    47  36  65 SE16G28   30.08F
PARIS*         CLEAR     46  34  62 SE14      30.12F
$$

ILZ079-100>102-240200-
SOUTHWEST ILLINOIS

CITY           SKY/WX    TMP DP  RH WIND       PRES   REMARKS
ALTON          CLEAR     52  43  71 SE14      30.03F
BELLEVILLE     CLEAR     54  45  69 SE13      30.04F
CAHOKIA*       CLEAR     57  43  59 SE13      30.02F
SPARTA*        CLEAR     56  42  59 SE7       30.08S
$$

ILZ064>066-069>071-074>076-080>082-084>086-088>090-092>094-240200-
SOUTH-CENTRAL ILLINOIS

CITY           SKY/WX    TMP DP  RH WIND       PRES   REMARKS
CARBONDALE     CLEAR     54  44  69 SE9       30.10F
CAIRO*         CLEAR     56  45  67 NE5       30.12S
EFFINGHAM*     CLEAR     47  40  77 E16       30.12F
MARION         CLEAR     54  43  66 SE7       30.12F
MT. VERNON     CLEAR     50  42  74 SE7       30.13S
CENTRALIA*     CLEAR     52  43  72 SE12G18   30.09S
SALEM*         CLEAR     52  42  68 SE8       30.10S
$$

ILZ067-068-072-073-078-083-087-091-240200-
SOUTHEAST ILLINOIS

CITY           SKY/WX    TMP DP  RH WIND       PRES   REMARKS
LAWRENCEVILLE  MOCLDY    49  36  61 SE9       30.17F
FLORA*         CLEAR     48  42  78 SE14      30.13F
FAIRFIELD*     CLEAR     49  41  74 SE8       30.13F
HARRISBURG*    CLEAR     50  44  79 E9        30.15F
ROBINSON*      CLEAR     47  34  60 SE10      30.16F
CARMI*         CLEAR     46  42  86 E8        30.15F
$$

ABBREVIATIONS USED IN REMARKS
   TC - TEMPERATURE IN CELSIUS
  WCI - WIND CHILL INDEX
   HX - HEAT INDEX
  VSB - VISIBILITY
$$





USA.gov is the U.S. government's official web portal to all federal, state and local government web resources and services.